Regional Weather Roundup
Issued by NWS Burlington, VT

Home | Current Version | Previous Version | Text Only | Print | Product List | Glossary On
Versions: 1 2 3 4 5 6 7 8 9 10 11 12 13 14 15 16 17 18 19 20 21 22 23 24 25 26 27 28 29 30 31 32 33 34 35 36 37 38 39 40 41 42 43 44 45 46 47 48 49 50
000
ASUS41 KBTV 020230
RWRBTV
VERMONT REGIONAL WEATHER ROUNDUP
NATIONAL WEATHER SERVICE BURLINGTON VT
1000 PM EDT FRI AUG 01 2014

NOTE: "FAIR" INDICATES FEW OR NO CLOUDS BELOW 12,000 FEET WITH NO
SIGNIFICANT WEATHER AND/OR OBSTRUCTIONS TO VISIBILITY.

* THESE REPORTS ARE NOT UNDER NWS QUALITY CONTROL AND/OR DO NOT
  REPORT WEATHER SUCH AS PRECIPITATION AND FOG.

VTZ001>019-020300-
_____VERMONT_____


CITY           SKY/WX    TMP DP  RH WIND       PRES   REMARKS
BURLINGTON     CLEAR     74  60  61 S8        30.15R
MONTPELIER     PTCLDY    68  56  65 SW3       30.24R
MORRISVILLE    PTCLDY    64  61  90 CALM      30.20R
ST. JOHNSBURY*   N/A     67  62  84 MISG      30.17R
LYNDONVILLE*   FAIR      69  58  69 SE5       30.22S
MIDDLEBURY*    FAIR      68  64  86 CALM      30.17S
RUTLAND*       PTCLDY    70  63  78 SE7       30.21R
SPRINGFIELD    MOCLDY    69  65  86 CALM      30.22R
HIGHGATE*      FAIR      66  64  92 CALM      30.15R
NEWPORT*       FAIR      67  61  80 S5        30.20R
BENNINGTON     MOCLDY    70  60  70 VRB3      30.22R
GALLUP MILLS*    N/A     45 N/A N/A MISG        N/A
UNION VILLAGE*   N/A     66 N/A N/A MISG        N/A
MT. MANSFIELD*   N/A     61 N/A N/A W12G23      N/A

_____LAKE CHAMPLAIN_____


CITY           SKY/WX    TMP DP  RH WIND       PRES   REMARKS
COLCHESTER RF*   N/A     73  66  78 S12         N/A
DIAMOND ISL*     N/A     73  64  73 S5          N/A

$$

NYZ007-026>031-035-052-083-020300-
_____NORTHERN NEW YORK_____


CITY           SKY/WX    TMP DP  RH WIND       PRES   REMARKS
PLATTSBURGH    CLEAR     64  64 100 CALM      30.14R FOG
SARANAC LAKE   CLEAR     59  58  96 CALM      30.20R FOG
MASSENA        CLEAR     63  62  97 CALM      30.14R
OGDENSBURG*    CLEAR     63  61  94 CALM      30.14R FOG
POTSDAM*       CLEAR     64  63  94 CALM      30.14F
PARISHVILLE*     N/A     66 N/A N/A SE3         N/A
WATERTOWN      PTCLDY    66  61  84 CALM      30.14R
FT DRUM        PTCLDY    69  62  79 CALM      30.15R
ALBANY         MOCLDY    72  62  71 S8        30.19R
GLENS FALLS    PTCLDY    71  61  70 S8        30.19R

$$
NHZ002-005-011-020300-
_____NEW HAMPSHIRE_____


CITY           SKY/WX    TMP DP  RH WIND       PRES   REMARKS
LEBANON        PTCLDY    70  64  81 S6        30.20R
KEENE          CLOUDY    70  59  68 CALM      30.23S
MT WASHINGTON  FOG       50  50 100 SW26G36     N/A  VSB 1/16
PLYMOUTH       FAIR      69  64  84 SE5       30.21F
WHITEFIELD     MOCLDY    63  59  87 CALM      30.21R

$$

_____REGIONAL QUEBEC LOCATIONS_____


CITY           SKY/WX    TMP DP  RH WIND       PRES   REMARKS
MONTREAL       CLEAR     73  63  68 SW3       30.13R
QUEBEC CITY    PTCLDY    66  61  82 W3        30.14S
SHERBROOKE     PTCLDY    64  61  88 S2        30.17R

_____REGIONAL ONTARIO LOCATIONS_____


CITY           SKY/WX    TMP DP  RH WIND       PRES   REMARKS
OTTAWA         PTCLDY    66  61  82 S5        30.13R

______KEY______
VSB  - VISIBILITY IN MILES
WCI  - WIND CHILL INDEX
HX   - HEAT INDEX
$$
NNNN



USA.gov is the U.S. government's official web portal to all federal, state and local government web resources and services.